Regional Weather Roundup
Issued by NWS

Home | Current Version | Previous Version | Graphics & Text | Print | Product List | Glossary Off
Versions: 1 2 3 4 5 6 7 8 9 10 11 12 13 14 15 16 17 18 19 20 21 22 23 24 25 26 27 28 29 30 31 32 33 34 35 36 37 38 39 40 41 42 43 44 45 46 47 48 49 50

000
ASUS43 KTOP 221659
RWRKS

WEATHER ROUNDUP FOR KANSAS
NATIONAL WEATHER SERVICE GOODLAND KS
1100 AM CST MON JAN 22 2018

NOTE:  "FAIR" INDICATES FEW OR NO CLOUDS BELOW 12,000 FEET WITH NO
SIGNIFICANT WEATHER AND/OR OBSTRUCTIONS TO VISIBILITY.

KSZ001>006-013>018-027>032-041>047-221800-
NORTHWEST KANSAS

CITY           SKY/WX    TMP DP  RH WIND       PRES   REMARKS
GOODLAND       LGT SNOW  25  18  74 NW25G36   29.92R WCI   9
HAYS           LGT SNOW  33  30  88 NW28G40   29.78R FOG     WCI  20
HILL CITY      FOG       31  29  92 NW29G46   29.84R VSB 1/2 WCI  16
RUSSELL        HVY SNOW  33  32  96 NW38G49   29.72R VSB 1/4 WCI  18
$$

KSZ061>065-074>080-084>089-221800-
SOUTHWEST KANSAS

CITY           SKY/WX    TMP DP  RH WIND       PRES   REMARKS
DODGE CITY     PTSUNNY   36  25  64 NW35G53   29.87R WCI  22
GARDEN CITY    MOSUNNY   34  22  61 NW33G51   29.92R WCI  20
GREAT BEND     LGT SNOW  33  30  88 NW30G41   29.75R FOG     WCI  19
LIBERAL        SUNNY     38  19  46 NW32G41   29.98R WCI  25
$$

KSZ066>073-081>083-090>101-221800-
SOUTHEAST KANSAS

CITY           SKY/WX    TMP DP  RH WIND       PRES   REMARKS
COFFEYVILLE    CLOUDY    43  30  60 W22G32    29.63R
HUTCHINSON     CLOUDY    34  31  88 NW29G39   29.67R WCI  20
MEDICINE LODGE   N/A     42  30  62 NW26G41   29.79R
NEWTON         CLOUDY    33  31  92 NW26G35   29.62R WCI  20
PARSONS        CLOUDY    42  31  64 W15G29    29.60R
WICHITA INTL   CLOUDY    37  33  85 NW26G39   29.66R WCI  25
WICHITA JABRA  CLOUDY    35  32  88 NW29G36   29.64R WCI  22
WICHITA MCCONL CLOUDY    36  31  84 NW20G31   29.65R WCI  25
WINFIELD       CLOUDY    40  31  70 NW28G38   29.70R WCI  29
$$

KSZ007>012-019>026-033>040-048>060-102>105-221800-
NORTHEAST KANSAS

CITY           SKY/WX    TMP DP  RH WIND       PRES   REMARKS
CONCORDIA      LGT SNOW  32  29  88 NW25G37   29.59R FOG     WCI  19
EMPORIA        LGT SNOW  33  31  92 W18G25    29.53R FOG     WCI  22
LAWRENCE       CLOUDY    39  35  86 S9G20     29.45F
MANHATTAN      CLOUDY    35  31  85 NW7       29.53R
OLATHE IND     CLOUDY    36  35  96 S13       29.47F WCI  27
OLATHE EXE     CLOUDY    35  34  96 S12       29.47S FOG     WCI  27
SALINA         CLOUDY    36  31  82 NW26G36   29.63R WCI  24
TOPEKA BILLARD LGT RAIN  36  35  96 W8        29.47R
TOPEKA FORBES  LGT SNOW  36  34  92 W13       29.46S FOG     WCI  27
$$




USA.gov is the U.S. government's official web portal to all federal, state and local government web resources and services.